This is the latest recevied weather packets stored in our database for station/object KD5GAT-51. If no packets are shown the sender has not sent any weather packets the latest 1 day(s).
| Time | Temp. | Humidity | Pressure | Rain* | Wind** | Luminosity | Snow |
|---|---|---|---|---|---|---|---|
| 1777876839 | 18.33° C | 100% | 1019.2 hPa | - | - | - | - |
| 1777875939 | 18.33° C | 98% | 1019.3 hPa | - | - | - | - |
| 1777875039 | 18.89° C | 96% | 1019.5 hPa | - | - | - | - |
| 1777874138 | 18.89° C | 94% | 1019.2 hPa | - | - | - | - |
| 1777873237 | 18.89° C | 91% | 1019.6 hPa | - | - | - | - |
| 1777872337 | 18.89° C | 89% | 1019.8 hPa | - | - | - | - |
| 1777871437 | 19.44° C | 86% | 1019.7 hPa | - | - | - | - |
| 1777870537 | 19.44° C | 84% | 1019.5 hPa | - | - | - | - |
| 1777869637 | 19.44° C | 82% | 1019.6 hPa | - | - | - | - |
| 1777868736 | 19.44° C | 79% | 1019.8 hPa | - | - | - | - |
| 1777867836 | 20° C | 76% | 1019.7 hPa | - | - | - | - |
| 1777866936 | 20° C | 72% | 1019.8 hPa | - | - | - | - |
| 1777866036 | 20.56° C | 69% | 1019.7 hPa | - | - | - | - |
| 1777865136 | 20.56° C | 67% | 1019.7 hPa | - | - | - | - |
| 1777864236 | 21.11° C | 64% | 1019.4 hPa | - | - | - | - |
| 1777863335 | 21.67° C | 60% | 1019.4 hPa | - | - | - | - |
| 1777862435 | 21.67° C | 55% | 1019.5 hPa | - | - | - | - |
| 1777861535 | 21.67° C | 49% | 1019.4 hPa | - | - | - | - |
| 1777860635 | 21.67° C | 47% | 1019.3 hPa | - | - | - | - |
| 1777859735 | 22.22° C | 46% | 1019.1 hPa | - | - | - | - |
| 1777858835 | 22.22° C | 44% | 1019 hPa | - | - | - | - |
| 1777857934 | 22.78° C | 42% | 1018.8 hPa | - | - | - | - |
| 1777857034 | 23.33° C | 40% | 1018.8 hPa | - | - | - | - |
| 1777856134 | 23.89° C | 38% | 1018.7 hPa | - | - | - | - |
| 1777855234 | 25° C | 35% | 1018.9 hPa | - | - | - | - |
* Rain since midnight (hover to see other rain measurements)
** Current wind speed in m/s (hover to see current wind gust speed)